Location: Schommer Observatory
(40.5200°N, 74.4500°W)
Time: 00:02:07
(UTC-04:00)

Tiangong 2 - Pass Details

Date: 12 October 2017
Orbit: 388 x 392 km, 42.8° (Epoch: 16 October)

Event Time Altitude Azimuth Distance (km) Brightness Sun altitude
Exits shadow 05:16:11 56° 73° (ENE) 468 1.7 -21.6°
Drops below altitude 10° 05:18:48 10° 74° (ENE) 1,423 5.1 -21.1°
Sets 05:20:53 0° 75° (ENE) 2,280 6.5 -20.7°
